This demonstration page uses our WeatherBlox Daily Observations layout. Learn more.

40.92945, -100.16068

Hourly Observations for August 21, 2017

Temp ( °F °C ) Dew Point ( °F °C ) Humidity (%) Winds ( mph kmh ) Pressure ( in mb ) Visibility ( mi km ) Precip ( " mm )
12:15 am 00:15 Clear with Mist and Fog 73 22.8 71 21.7 94 94 Calm 29.88 1012 5 8.04672 0 0
12:35 am 00:35 Partly Cloudy with Mist and Fog 73 22.5 71 21.5 94 94 SW 5 7 29.88 1012 5 8.04672 0 0
12:55 am 00:55 Partly Cloudy with Mist and Fog 73 22.5 71 21.5 94 94 Calm 29.88 1012 4 6.437376 0 0
1:15 am 01:15 Mostly Cloudy with Mist and Fog 72 22.2 70 21.3 95 95 Calm 29.88 1012 1.25 2.01168 0 0
1:35 am 01:35 Clear with Mist and Fog 71 21.6 69 20.7 95 95 Calm 29.88 1012 2 3.218688 0 0
1:55 am 01:55 Cloudy with Mist and Fog 70 21.2 69 20.3 95 95 Calm 29.88 1012 0.75 1.207008 0 0
2:15 am 02:15 Cloudy with Fog 69 20.5 67 19.6 95 95 Calm 29.88 1012 0.25 0.402336 0 0
2:35 am 02:35 Cloudy with Fog 69 20.5 67 19.7 95 95 Calm 29.88 1012 0.25 0.402336 0 0
2:55 am 02:55 Cloudy with Fog 68 20.1 67 19.3 95 95 Calm 29.88 1012 0.25 0.402336 0 0
3:15 am 03:15 Cloudy with Fog 68 20.1 67 19.3 95 95 Calm 29.88 1012 0.25 0.402336 0 0
3:35 am 03:35 Cloudy with Fog 68 20.2 67 19.4 95 95 NNW 3 6 29.85 1011 0.25 0.402336 0 0
3:55 am 03:55 Cloudy with Fog 68 20.2 67 19.4 95 95 NW 3 6 29.85 1011 0.25 0.402336 0 0
4:15 am 04:15 Cloudy with Fog 68 20.1 67 19.3 95 95 Calm 29.85 1011 0.5 0.804672 0 0
4:35 am 04:35 Cloudy with Fog 67 19.5 66 18.7 95 95 Calm 29.85 1011 0.5 0.804672 0 0
4:55 am 04:55 Cloudy with Fog 67 19.5 66 18.7 95 95 Calm 29.85 1011 0.25 0.402336 0 0
5:15 am 05:15 Cloudy with Fog 66 19 65 18.2 95 95 Calm 29.88 1012 0.5 0.804672 0 0
5:40 am 05:40 Cloudy with Mist and Fog 66 18.7 64 17.9 95 95 Calm 29.88 1012 0.75 1.207008 0 0
5:55 am 05:55 Partly Cloudy with Mist and Fog 65 18.5 64 17.8 96 96 Calm 29.88 1012 2.5 4.02336 0 0
6:15 am 06:15 Clear 66 18.8 64 18 95 95 SE 3 6 29.91 1013 7 11.265408 0 0
6:35 am 06:35 Clear 67 19.6 66 18.8 95 95 Calm 29.88 1012 10 16.09344 0 0
6:55 am 06:55 Clear 67 19.4 65 18.5 95 95 Calm 29.91 1013 10 16.09344 0 0
7:15 am 07:15 Sunny 67 19.5 65 18.2 92 92 ESE 6 9 29.91 1013 10 16.09344 0 0
7:35 am 07:35 Sunny 68 20 66 18.8 93 93 SSE 5 7 29.88 1012 10 16.09344 0 0
7:55 am 07:55 Sunny 69 20.5 66 19 91 91 S 5 7 29.88 1012 10 16.09344 0 0
8:15 am 08:15 Sunny 70 20.9 67 19.3 91 91 S 6 9 29.88 1012 10 16.09344 0 0
8:35 am 08:35 Sunny 71 21.6 67 19.7 89 89 SSE 6 9 29.88 1012 10 16.09344 0 0
8:55 am 08:55 Sunny 72 22.4 68 19.9 86 86 S 7 11 29.88 1012 10 16.09344 0 0
9:15 am 09:15 Sunny 74 23.6 67 19.5 78 78 S 8 13 29.85 1011 10 16.09344 0 0
9:35 am 09:35 Sunny 76 24.7 67 19.4 72 72 S 7 11 29.85 1011 10 16.09344 0 0
9:55 am 09:55 Sunny 77 24.8 66 18.8 69 69 SW 10 17 29.85 1011 10 16.09344 0 0
10:15 am 10:15 Sunny 78 25.7 67 19.3 68 68 SSW 10 17 29.83 1010 10 16.09344 0 0
10:35 am 10:35 Sunny 80 26.5 67 19.7 66 66 S 13 20 29.8 1009 10 16.09344 0 0
10:55 am 10:55 Sunny 80 26.6 67 19.5 65 65 S 12 19 29.8 1009 10 16.09344 0 0
11:15 am 11:15 Sunny 81 27.1 67 19.6 64 64 SW 10 17 29.8 1009 10 16.09344 0 0
11:35 am 11:35 Sunny 82 27.5 67 19.4 61 61 SSW 9 15 29.8 1009 10 16.09344 0 0
11:55 am 11:55 Sunny 83 28.1 67 19.6 60 60 SSW 9 15 29.8 1009 10 16.09344 0 0
12:15 pm 12:15 Sunny 82 28 66 19.1 58 58 SSW 10 17 29.8 1009 10 16.09344 0 0
12:35 pm 12:35 Sunny 82 27.6 66 18.8 59 59 S 12 19 29.8 1009 10 16.09344 0 0
12:55 pm 12:55 Sunny 79 26 65 18.5 63 63 S 7 11 29.83 1010 7 11.265408 0 0
1:15 pm 13:15 Sunny 77 25 65 18.5 67 67 S 9 15 29.83 1010 10 16.09344 0 0
1:35 pm 13:35 Sunny 80 26.5 67 19.3 65 65 SSW 7 11 29.8 1009 10 16.09344 0 0
1:55 pm 13:55 Sunny 82 27.7 67 19.5 61 61 SSW 9 15 29.8 1009 10 16.09344 0 0
2:15 pm 14:15 Sunny 84 28.7 67 19.4 57 57 S 14 22 29.8 1009 10 16.09344 0 0
2:35 pm 14:35 Sunny 84 29.1 66 19.1 55 55 SSW 13 20 29.83 1010 10 16.09344 0 0
2:55 pm 14:55 Sunny 85 29.7 67 19.4 54 54 SSW 9 15 29.83 1010 10 16.09344 0 0
3:15 pm 15:15 Sunny 86 30 66 19 52 52 SW 6 9 29.83 1010 10 16.09344 0 0
3:35 pm 15:35 Sunny 86 29.8 65 18.5 51 51 SSW 13 20 29.83 1010 10 16.09344 0 0
3:55 pm 15:55 Sunny 87 30.3 65 18.4 49 49 SSW 10 17 29.77 1008 10 16.09344 0 0
4:15 pm 16:15 Sunny 86 30 65 18.5 50 50 SSW 5 7 29.83 1010 10 16.09344 0 0
4:35 pm 16:35 Sunny 85 29.7 65 18.2 50 50 S 9 15 29.8 1009 10 16.09344 0 0
4:55 pm 16:55 Sunny 84 29.1 66 18.8 54 54 S 7 11 29.8 1009 10 16.09344 0 0
5:15 pm 17:15 Sunny 85 29.4 67 19.6 56 56 SSW 6 9 29.8 1009 10 16.09344 0 0
5:35 pm 17:35 Sunny 85 29.5 68 19.8 56 56 SSW 6 9 29.83 1010 10 16.09344 0 0
5:55 pm 17:55 Sunny 85 29.5 66 19 53 53 SSW 6 9 29.83 1010 10 16.09344 0 0
6:15 pm 18:15 Sunny 84 29 68 20.2 59 59 SSW 3 6 29.83 1010 10 16.09344 0 0
6:35 pm 18:35 Sunny 85 29.5 69 20.3 58 58 Calm 29.83 1010 10 16.09344 0 0
6:55 pm 18:55 Sunny 86 29.9 68 19.8 55 55 Calm 29.83 1010 10 16.09344 0 0
7:15 pm 19:15 Sunny 85 29.6 68 19.8 56 56 Calm 29.83 1010 10 16.09344 0 0
7:35 pm 19:35 Sunny 82 27.9 71 21.7 69 69 N 5 7 29.83 1010 10 16.09344 0 0
7:55 pm 19:55 Mostly Cloudy 80 26.7 71 21.5 73 73 N 14 22 29.83 1010 10 16.09344 0 0
8:15 pm 20:15 Partly Cloudy 79 26 71 21.5 76 76 N 13 20 29.88 1012 10 16.09344 0 0
8:35 pm 20:35 Mostly Cloudy 78 25.5 70 21.1 77 77 N 12 19 29.88 1012 10 16.09344 0 0
8:55 pm 20:55 Mostly Cloudy 78 25.3 69 20.5 75 75 NNE 13 20 29.88 1012 10 16.09344 0 0
9:15 pm 21:15 Cloudy 77 25 68 20 74 74 NNE 12 19 29.91 1013 10 16.09344 0 0
9:35 pm 21:35 Mostly Cloudy 76 24.4 67 19.6 75 75 NNE 13 20 29.91 1013 10 16.09344 0 0
9:55 pm 21:55 Cloudy 75 24.1 67 19.5 76 76 NNE 8 13 29.91 1013 10 16.09344 0 0
10:15 pm 22:15 Cloudy 75 23.7 66 19.1 76 76 NNE 6 9 29.91 1013 10 16.09344 0 0
10:35 pm 22:35 Cloudy 74 23.5 65 18.5 74 74 NNE 9 15 29.94 1014 10 16.09344 0 0
10:55 pm 22:55 Cloudy 74 23.1 65 18.3 74 74 NNE 9 15 29.94 1014 10 16.09344 0 0
11:15 pm 23:15 Mostly Cloudy 73 22.7 65 18.4 77 77 NE 12 19 29.97 1015 10 16.09344 0 0
11:35 pm 23:35 Cloudy 72 22.3 65 18.5 79 79 NE 10 17 29.97 1015 10 16.09344 0 0
11:55 pm 23:55 Cloudy 70 21.2 65 18.1 83 83 NE 10 17 29.97 1015 10 16.09344 0 0

Powered by AerisWeather